Вернуться в каталог

STARLINK-32568

АктивенСвязьVLEO
NORAD 62128·PAYLOAD·🇺🇸 United States

Запущен Nov 27, 2024 с Cape Canaveral Space Force Station

Loading…

Ближайшие Пролёты (ближайшие 24 часа)

TLE

СвежийSource: CelesTrak SupGP

Эпоха: Sep 15, 2026, 03:33 UTC

1 62128C 24222Q   26258.14840278  .00060651  00000+0  21970-2 0  2584
2 62128  43.0017 146.3843 0001430 278.5333  34.6737 15.27544625    16

Отслеживайте STARLINK-32568 в реальном времени с AllMySat

Download on the App Store